Voltar ao catálogo

INTELSAT 512

AtivoComunicaçõesGEO
NORAD 16101·PAYLOAD· XX

Lançado Sep 28, 1985 de Cape Canaveral Space Force Station

Loading…

TLE

AtualizadoSource: Space-Track

Época: Sep 14, 2026, 12:58 UTC

1 16101U 85087A   26257.54091545 -.00000195  00000-0  00000+0 0  9997
2 16101  14.0420 343.0913 0010961 304.8383  77.4290  0.99118169131212

Acompanhe INTELSAT 512 em tempo real com AllMySat

Download on the App Store